DRAGON CRS-16 is no longer on orbit DRAGON CRS-16 is classified as:
1 43827U 18101A 19013.58677685 +.00000299 +00000-0 +11878-4 0 9990 2 43827 051.6425 050.2106 0002416 284.1251 212.8292 15.53757701151238